Tracking 29892 objects as of 21-Nov-2024
HD Live streaming from Space Station
objects crossing your sky now

STARLINK-1282

Track STARLINK-1282 now!
10-day predictions
STARLINK-1282 is classified as:


NORAD ID: 45409
Int'l Code: 2020-019BB
Perigee: 553.4 km
Apogee: 555.3 km
Inclination: 53.1 °
Period: 95.6 minutes
Semi major axis: 6925 km
RCS: Unknown
Launch date: March 18, 2020
Source: United States (US)
Launch site: AIR FORCE EASTERN TEST RANGE (AFETR)
Your satellite tracking list
Your tracking list is empty




NASA's NSSDC Master Catalog

Two Line Element Set (TLE):
1 45409U 20019BB  24325.41763598 -.00000352  00000-0 -47498-5 0  9992
2 45409  53.0547 105.7062 0001441 108.5706 251.5439 15.06400785258387
Source of the keplerian elements: AFSPC